User: anonymous   Login
Location: Charbonni�res
(45.9952°N, 2.9982°E)
Time: 22:32:34
(UTC+00:00)
Language:

FENGYUN 1C DEB - Orbit

View from above orbital plane
View from above orbital plane
View from above satellite
View from above satellite

Ground track
Ground track

The orbit data is extracted from the following two-line orbital elements,

1 30570U 99025ALL 21175.09197701  .00000125  00000-0  93564-4 0  9999
2 30570  98.8980 215.3001 0037642 161.0800 254.4428 14.10811442739531
Epoch (UTC): 24 June 2021 02:12:26
Eccentricity: 0.0037642
inclination: 98.8980°
perigee height: 829 km
apogee height: 884 km
right ascension of ascending node: 215.3001°
argument of perigee: 161.0800°
revolutions per day: 14.10811442
mean anomaly at epoch: 254.4428°
orbit number at epoch: 73953

The dashed part of the orbit path shows where the satellite is in the earth's shadow,  

DLR